EZY87VV LGSK-EGKK

Flight info

Callsign EZY87VV
Flight time N/A
Altitude 36000
Route IBIDI DCT TSL DCT TALAS DCT MAVAR DCT RINAV DCT RETRA DCT NETKO DCT OKLAX DCT PUL DCT ROTAR DCT SUMIR DCT SAFFA DCT RONAG DCT RLP DCT IRBAL DCT KUNAV
Aircraft A320/M-SDE3FGHIRWY/LB1

Departure

Time 2026-04-21 14:25
Airport Skiathos Island National Airport (LGSK)

Arrival

Time N/A
Airport London Gatwick Airport (EGKK)
Time Latitude Longitude Altitude Speed Heading
2026-04-21 13:17 39.17911 23.50231 61 ft 0 kts 290°
2026-04-21 14:16 39.17906 23.50248 55 ft 3 kts 294°
2026-04-21 14:16 39.17897 23.50271 58 ft 3 kts 306°
2026-04-21 14:16 39.17884 23.50289 55 ft 3 kts 329°
2026-04-21 14:16 39.17868 23.50297 57 ft 2 kts 11°
2026-04-21 14:17 39.17860 23.50294 54 ft 1 kts 19°
2026-04-21 14:17 39.17859 23.50294 54 ft 0 kts 19°
2026-04-21 14:21 39.17865 23.50297 57 ft 6 kts 18°
2026-04-21 14:21 39.17903 23.50314 57 ft 9 kts 19°
2026-04-21 14:21 39.17941 23.50374 65 ft 15 kts 72°
2026-04-21 14:22 39.18009 23.50500 63 ft 19 kts 23°
2026-04-21 14:22 39.18139 23.50558 71 ft 20 kts 20°
2026-04-21 14:22 39.18277 23.50618 74 ft 22 kts 18°
2026-04-21 14:22 39.18376 23.50663 74 ft 0 kts 20°
2026-04-21 14:23 39.18383 23.50667 68 ft 2 kts 20°
2026-04-21 14:23 39.18431 23.50689 75 ft 12 kts 21°
2026-04-21 14:23 39.18486 23.50720 71 ft 5 kts 309°
2026-04-21 14:23 39.18475 23.50708 73 ft 0 kts 202°
2026-04-21 14:24 39.18452 23.50697 75 ft 25 kts 201°
2026-04-21 14:24 39.18018 23.50504 67 ft 105 kts 199°
2026-04-21 14:25 39.17129 23.50111 229 ft 151 kts 200°
2026-04-21 14:25 39.16136 23.49700 1053 ft 149 kts 199°
2026-04-21 14:25 39.15126 23.49278 1540 ft 161 kts 200°
2026-04-21 14:25 39.13985 23.48773 1754 ft 185 kts 202°
2026-04-21 14:26 39.12734 23.48199 2136 ft 197 kts 201°
2026-04-21 14:26 39.11358 23.48128 2665 ft 208 kts 165°
2026-04-21 14:26 39.10127 23.49148 3180 ft 217 kts 134°
2026-04-21 14:26 39.09418 23.50877 3714 ft 224 kts 102°
2026-04-21 14:27 39.09545 23.52868 4261 ft 227 kts 67°
2026-04-21 14:27 39.10496 23.54451 4796 ft 225 kts 33°
2026-04-21 14:27 39.11785 23.55604 5332 ft 227 kts 31°
2026-04-21 14:27 39.13115 23.56836 5579 ft 247 kts 32°
2026-04-21 14:28 39.14569 23.58204 5841 ft 271 kts 33°
2026-04-21 14:28 39.16168 23.59613 6333 ft 282 kts 23°
2026-04-21 14:28 39.18014 23.60440 7016 ft 281 kts
2026-04-21 14:28 39.19950 23.60485 7793 ft 278 kts 347°
2026-04-21 14:29 39.21793 23.59799 8561 ft 276 kts 335°
2026-04-21 14:29 39.23599 23.58915 9341 ft 279 kts 336°
2026-04-21 14:29 39.25423 23.58030 10054 ft 283 kts 336°
2026-04-21 14:29 39.27308 23.57117 10297 ft 304 kts 336°
2026-04-21 14:30 39.29388 23.56109 10522 ft 324 kts 336°
2026-04-21 14:30 39.31487 23.55097 11128 ft 328 kts 336°
2026-04-21 14:30 39.33637 23.54064 11813 ft 332 kts 336°
2026-04-21 14:30 39.35809 23.53019 12490 ft 335 kts 336°
2026-04-21 14:31 39.37998 23.51964 13140 ft 337 kts 336°
2026-04-21 14:31 39.40210 23.50896 13781 ft 341 kts 336°
2026-04-21 14:31 39.42435 23.49820 14357 ft 343 kts 336°
2026-04-21 14:31 39.44679 23.48735 14946 ft 345 kts 335°
2026-04-21 14:32 39.46933 23.47645 15542 ft 347 kts 335°
2026-04-21 14:32 39.49201 23.46549 16129 ft 349 kts 335°
2026-04-21 14:32 39.51483 23.45445 16732 ft 351 kts 335°
2026-04-21 14:32 39.53774 23.44334 17318 ft 353 kts 335°
2026-04-21 14:33 39.56077 23.43217 17915 ft 355 kts 335°
2026-04-21 14:33 39.58397 23.42090 18438 ft 357 kts 335°
2026-04-21 14:33 39.60725 23.40958 18920 ft 359 kts 335°
2026-04-21 14:33 39.63072 23.39814 19400 ft 361 kts 335°
2026-04-21 14:34 39.65424 23.38667 19882 ft 363 kts 335°
2026-04-21 14:34 39.67804 23.37508 20344 ft 365 kts 335°
2026-04-21 14:34 39.70190 23.36347 20804 ft 367 kts 335°
2026-04-21 14:34 39.72559 23.35190 21253 ft 370 kts 335°
2026-04-21 14:35 39.74972 23.34007 21699 ft 372 kts 335°
2026-04-21 14:35 39.77400 23.32817 22148 ft 374 kts 335°
2026-04-21 14:35 39.79842 23.31622 22588 ft 376 kts 335°
2026-04-21 14:35 39.82302 23.30420 23005 ft 379 kts 335°
2026-04-21 14:36 39.84781 23.29210 23417 ft 381 kts 335°
2026-04-21 14:36 39.87270 23.27993 23786 ft 383 kts 335°
2026-04-21 14:36 39.89773 23.26768 24139 ft 385 kts 335°
2026-04-21 14:36 39.92287 23.25536 24489 ft 387 kts 335°
2026-04-21 14:37 39.94813 23.24294 24832 ft 389 kts 334°
2026-04-21 14:37 39.97348 23.23046 25176 ft 390 kts 334°
2026-04-21 14:37 39.99890 23.21793 25510 ft 392 kts 334°
2026-04-21 14:37 40.02449 23.20534 25848 ft 394 kts 334°
2026-04-21 14:38 40.05017 23.19269 26158 ft 396 kts 334°
2026-04-21 14:38 40.07564 23.18014 26475 ft 397 kts 334°
2026-04-21 14:38 40.10192 23.16716 26802 ft 399 kts 334°
2026-04-21 14:38 40.12756 23.15451 27114 ft 401 kts 334°
2026-04-21 14:39 40.15369 23.14160 27431 ft 402 kts 334°
2026-04-21 14:39 40.17992 23.12860 27745 ft 404 kts 334°
2026-04-21 14:39 40.20623 23.11556 28049 ft 406 kts 334°
2026-04-21 14:39 40.23269 23.10245 28351 ft 407 kts 334°
2026-04-21 14:40 40.25925 23.08930 28673 ft 409 kts 334°
2026-04-21 14:40 40.28587 23.07612 28972 ft 410 kts 334°
2026-04-21 14:40 40.31266 23.06283 29261 ft 412 kts 334°
2026-04-21 14:40 40.33945 23.04948 29516 ft 413 kts 334°
2026-04-21 14:41 40.36638 23.03601 29803 ft 415 kts 334°
2026-04-21 14:41 40.39338 23.02250 30043 ft 416 kts 334°
2026-04-21 14:41 40.42044 23.00874 30284 ft 416 kts 330°
2026-04-21 14:41 40.44562 22.99091 30693 ft 409 kts 321°
2026-04-21 14:42 40.46775 22.96807 31064 ft 402 kts 312°
2026-04-21 14:42 40.48609 22.94135 31369 ft 397 kts 304°
2026-04-21 14:42 40.50284 22.91256 31650 ft 397 kts 304°
2026-04-21 14:42 40.51960 22.88379 31980 ft 396 kts 304°
2026-04-21 14:43 40.53635 22.85512 32338 ft 395 kts 304°
2026-04-21 14:43 40.55308 22.82652 32633 ft 394 kts 304°
2026-04-21 14:43 40.56976 22.79801 32931 ft 393 kts 304°
2026-04-21 14:43 40.58640 22.76953 33227 ft 393 kts 304°
2026-04-21 14:44 40.60301 22.74106 33538 ft 391 kts 304°
2026-04-21 14:44 40.61955 22.71263 33848 ft 390 kts 304°
2026-04-21 14:44 40.63626 22.68391 34107 ft 390 kts 304°
2026-04-21 14:44 40.65269 22.65559 34308 ft 390 kts 304°
2026-04-21 14:45 40.66924 22.62705 34436 ft 392 kts 304°
2026-04-21 14:45 40.68579 22.59849 34615 ft 393 kts 304°
2026-04-21 14:45 40.70238 22.56986 34817 ft 393 kts 304°
2026-04-21 14:45 40.71895 22.54124 35018 ft 393 kts 304°
2026-04-21 14:46 40.73554 22.51257 35214 ft 393 kts 304°
2026-04-21 14:46 40.75210 22.48392 35396 ft 393 kts 304°
2026-04-21 14:46 40.76864 22.45524 35576 ft 393 kts 304°
2026-04-21 14:46 40.78517 22.42654 35797 ft 392 kts 304°
2026-04-21 14:47 40.80169 22.39784 35894 ft 392 kts 304°
2026-04-21 14:47 40.83438 22.34110 35910 ft 390 kts 304°
2026-04-21 14:48 40.86712 22.28402 35915 ft 390 kts 304°
2026-04-21 14:48 40.89985 22.22685 35915 ft 390 kts 304°
2026-04-21 14:49 40.93258 22.16968 35927 ft 390 kts 304°
2026-04-21 14:49 40.96523 22.11244 35921 ft 390 kts 304°
2026-04-21 14:50 40.99241 22.06484 35926 ft 390 kts 304°
2026-04-21 14:50 41.03050 21.99792 35931 ft 389 kts 304°
2026-04-21 14:51 41.06305 21.94060 35937 ft 389 kts 304°
2026-04-21 14:51 41.09239 21.88066 35940 ft 387 kts 298°
2026-04-21 14:52 41.11921 21.81918 35965 ft 387 kts 298°
2026-04-21 14:52 41.14615 21.75733 35945 ft 388 kts 298°
2026-04-21 14:53 41.17317 21.69533 35937 ft 388 kts 298°
2026-04-21 14:53 41.20019 21.63329 35941 ft 388 kts 298°
2026-04-21 14:54 41.22719 21.57104 35941 ft 389 kts 298°
2026-04-21 14:54 41.25412 21.50866 35938 ft 389 kts 298°
2026-04-21 14:55 41.28085 21.44667 35941 ft 389 kts 298°
2026-04-21 14:55 41.30775 21.38424 35939 ft 389 kts 298°
2026-04-21 14:56 41.33463 21.32176 35945 ft 389 kts 297°
2026-04-21 14:56 41.36142 21.25922 35935 ft 389 kts 298°
2026-04-21 14:57 41.38814 21.19669 35933 ft 389 kts 297°
2026-04-21 14:57 41.41491 21.13402 35945 ft 389 kts 297°
2026-04-21 14:58 41.44164 21.07141 35947 ft 388 kts 298°
2026-04-21 14:58 41.46809 21.00920 35957 ft 388 kts 297°
2026-04-21 14:59 41.49458 20.94659 35969 ft 388 kts 298°
2026-04-21 14:59 41.52105 20.88400 35958 ft 387 kts 297°
2026-04-21 15:00 41.54747 20.82136 35962 ft 387 kts 297°
2026-04-21 15:00 41.57389 20.75872 35963 ft 387 kts 298°
2026-04-21 15:01 41.60032 20.69617 35952 ft 386 kts 298°
2026-04-21 15:01 41.62667 20.63363 35958 ft 387 kts 297°
2026-04-21 15:02 41.65289 20.57087 35964 ft 386 kts 297°
2026-04-21 15:02 41.67900 20.50864 35961 ft 386 kts 298°
2026-04-21 15:03 41.70572 20.44626 35969 ft 386 kts 298°
2026-04-21 15:03 41.73235 20.38408 35970 ft 386 kts 298°
2026-04-21 15:04 41.75899 20.32159 35988 ft 385 kts 298°
2026-04-21 15:04 41.78548 20.25920 35985 ft 385 kts 298°
2026-04-21 15:05 41.81191 20.19678 35984 ft 385 kts 298°
2026-04-21 15:05 41.85157 20.10302 36005 ft 385 kts 297°
2026-04-21 15:06 41.87793 20.04053 36000 ft 385 kts 297°
2026-04-21 15:06 41.90425 19.97796 36007 ft 385 kts 297°
2026-04-21 15:07 41.93047 19.91548 35987 ft 384 kts 297°
2026-04-21 15:07 41.95658 19.85299 35983 ft 383 kts 297°
2026-04-21 15:08 41.98284 19.79054 35969 ft 384 kts 301°
2026-04-21 15:08 42.01401 19.73251 35967 ft 386 kts 303°
2026-04-21 15:09 42.04559 19.67419 35969 ft 386 kts 303°
2026-04-21 15:09 42.07721 19.61562 35961 ft 387 kts 303°
2026-04-21 15:10 42.10884 19.55698 35952 ft 386 kts 303°
2026-04-21 15:10 42.14041 19.49847 35941 ft 386 kts 303°
2026-04-21 15:11 42.17194 19.43987 35949 ft 386 kts 303°
2026-04-21 15:11 42.20341 19.38122 35960 ft 386 kts 303°
2026-04-21 15:12 42.23486 19.32236 35964 ft 386 kts 302°
2026-04-21 15:12 42.26493 19.26295 35968 ft 386 kts 301°
2026-04-21 15:13 42.29458 19.20246 35970 ft 386 kts 301°
2026-04-21 15:13 42.32433 19.14199 35971 ft 386 kts 301°
2026-04-21 15:14 42.35424 19.08169 35965 ft 386 kts 301°
2026-04-21 15:14 42.38418 19.02134 35962 ft 386 kts 301°
2026-04-21 15:15 42.41406 18.96092 35960 ft 386 kts 301°
2026-04-21 15:15 42.44391 18.90051 35955 ft 386 kts 301°
2026-04-21 15:16 42.47369 18.84006 35972 ft 386 kts 301°
2026-04-21 15:16 42.50338 18.77952 35960 ft 386 kts 301°
2026-04-21 15:17 42.53300 18.71897 35951 ft 385 kts 301°
2026-04-21 15:17 42.56262 18.65837 35949 ft 385 kts 301°
2026-04-21 15:18 42.59221 18.59782 35948 ft 385 kts 301°
2026-04-21 15:18 42.62176 18.53721 35949 ft 385 kts 301°